Regional Weather Roundup
Issued by NWS

Home | Current Version | Previous Version | Text Only | Print | Product List | Glossary Off
Versions: 1 2 3 4 5 6 7 8 9 10 11 12 13 14 15 16 17 18 19 20 21 22 23 24 25 26 27 28 29 30 31 32 33 34 35 36 37 38 39 40 41 42 43 44 45 46 47 48 49 50

000
ASUS43 KIND 160259
RWRIN

WEATHER ROUNDUP FOR INDIANA
NATIONAL WEATHER SERVICE INDIANAPOLIS IN
1000 PM EST FRI DEC 15 2017

NOTE: "FAIR" INDICATES FEW OR NO CLOUDS BELOW 12,000 FEET WITH NO
SIGNIFICANT WEATHER AND/OR OBSTRUCTIONS TO VISIBILITY.

* - STATION DOES NOT REPORT WEATHER SUCH AS PRECIPITATION OR FOG.

+ - STATION NOT QUALITY CONTROLLED BY THE NATIONAL WEATHER SERVICE.
    USE DATA WITH CAUTION...ESPECIALLY DEWPOINT AND RELATIVE
    HUMIDITY OBSERVATIONS.

INZ001>003-010>013-019-020-160400-
NORTHWEST INDIANA

CITY           SKY/WX    TMP DP  RH WIND       PRES   REMARKS
GARY /AIRPORT/ CLOUDY    36  19  51 SW14      29.94S WCI  27
MONTICELLO +   CLOUDY    32  19  57 SW12      29.97F WCI  23

$$

LMZ046-743>745-160400-
SOUTHERN LAKE MICHIGAN

STATION/POSITION TIME  TEMP    WIND        PRES    WAVE
                       AIR SEA DIR/SP/G            HT
                 (UTC) (F)     (DEG/KT/KT) (MB)    (FT)
BURNS HARBOR     0240   35     210/ 12/ 16 1013.9F
MICHIGAN CITY    0230   34     210/ 18/ 20   N/A

$$

INZ004-005-014>016-021>024-160400-
NORTH CENTRAL INDIANA

CITY           SKY/WX    TMP DP  RH WIND       PRES   REMARKS
GOSHEN         FLURRIES  31  21  66 SW13      29.93S WCI  21
PERU/GRISSOM   CLOUDY    31  20  62 SW14      29.97S WCI  21
SOUTH BEND     FLURRIES  30  23  75 SW12      29.93S WCI  20

$$

INZ006>009-017-018-025>027-160400-
NORTHEAST INDIANA

CITY           SKY/WX    TMP DP  RH WIND       PRES   REMARKS
FORT WAYNE     CLOUDY    30  21  69 SW14      29.97S WCI  19
KENDALLVILLE + CLOUDY    30  20  68 SW10      29.93S WCI  21

$$

INZ028-029-035-036-043>045-051>053-160400-
WEST CENTRAL INDIANA

CITY           SKY/WX    TMP DP  RH WIND       PRES   REMARKS
LAFAYETTE      CLOUDY    32  21  64 SW5       30.00F WCI  27
TERRE HAUTE    CLOUDY    34  23  64 SW12      30.05S WCI  25

$$

INZ030>032-037>040-046>048-054>057-064-065-160400-
CENTRAL INDIANA

CITY           SKY/WX    TMP DP  RH WIND       PRES   REMARKS
COLUMBUS       CLOUDY    30  21  69 S5        30.08F WCI  25
INDIANAPOLIS   CLOUDY    31  22  69 S10       30.03F WCI  22
-EAGLE CREEK   CLOUDY    32  21  64 SW7       30.02F WCI  26
KOKOMO +       CLOUDY    31  21  66 SW15      30.00S WCI  20
MT COMFORT *+  CLOUDY    30  25  80 SW8       30.03F WCI  23
SHELBYVILLE    CLOUDY    31  22  69 S7        30.05S WCI  24

$$

INZ033-034-041-042-049-050-058-059-160400-
EAST CENTRAL INDIANA

CITY           SKY/WX    TMP DP  RH WIND       PRES   REMARKS
MUNCIE         CLOUDY    32  19  58 SW12      30.01S WCI  23
RICHMOND +     CLOUDY    28  23  80 SW12      30.05S WCI  18

$$

INZ060-061-067>069-081>083-085>088-160400-
SOUTHWEST INDIANA

CITY           SKY/WX    TMP DP  RH WIND       PRES   REMARKS
EVANSVILLE     CLOUDY    37  27  67 S5        30.13S WCI  33
HUNTINGBURG +  CLOUDY    36  26  67 S7        30.12S WCI  30

$$

INZ062-063-066-070>080-084-089>092-160400-
SOUTH CENTRAL AND SOUTHEAST INDIANA

CITY           SKY/WX    TMP DP  RH WIND       PRES   REMARKS
BLOOMINGTON    CLOUDY    32  23  69 SW8       30.06F WCI  25
SEYMOUR +      CLOUDY    30  23  74 CALM      30.09S

$$





USA.gov is the U.S. government's official web portal to all federal, state and local government web resources and services.